TimeMST,TemperatureF,Dew PointF,Humidity,Sea Level PressureIn,VisibilityMPH,Wind Direction,Wind SpeedMPH,Gust SpeedMPH,PrecipitationIn,Events,Conditions,WindDirDegrees,DateUTC
12:15 AM,42.8,26.6,53,29.99,10.0,West,15.0,20.7,N/A,,Overcast,270,2012-12-08 07:15:00
12:35 AM,41.0,26.6,57,29.98,10.0,WNW,12.7,19.6,N/A,,Overcast,290,2012-12-08 07:35:00
12:55 AM,41.0,26.6,57,29.99,10.0,WNW,12.7,23.0,N/A,,Overcast,300,2012-12-08 07:55:00
1:15 AM,41.0,28.4,61,30.00,10.0,North,16.1,21.9,N/A,,Overcast,350,2012-12-08 08:15:00
1:35 AM,37.4,35.6,93,30.01,10.0,NNW,13.8,19.6,N/A,,Overcast,340,2012-12-08 08:35:00
1:55 AM,35.6,35.6,100,30.01,10.0,North,16.1,23.0,N/A,,Overcast,360,2012-12-08 08:55:00
2:15 AM,32.0,32.0,100,30.03,1.8,North,11.5,18.4,N/A,,Overcast,360,2012-12-08 09:15:00
2:35 AM,32.0,32.0,100,30.04,1.0,North,10.4,17.3,0.01,,Overcast,350,2012-12-08 09:35:00
2:55 AM,32.0,32.0,100,30.05,0.5,NNW,11.5,-,0.02,,Overcast,330,2012-12-08 09:55:00
3:15 AM,32.0,32.0,100,30.05,0.8,NW,8.1,18.4,0.01,,Overcast,310,2012-12-08 10:15:00
3:35 AM,32.0,32.0,100,30.05,10.0,WNW,9.2,-,0.01,,Overcast,300,2012-12-08 10:35:00
3:55 AM,32.0,32.0,100,30.04,10.0,NW,8.1,-,0.01,,Overcast,310,2012-12-08 10:55:00
4:15 AM,32.0,32.0,100,30.05,10.0,WNW,6.9,-,N/A,,Overcast,300,2012-12-08 11:15:00
4:35 AM,32.0,32.0,100,30.05,10.0,NW,8.1,-,N/A,,Overcast,310,2012-12-08 11:35:00
4:55 AM,32.0,32.0,100,30.06,10.0,West,6.9,-,N/A,,Overcast,280,2012-12-08 11:55:00
5:35 AM,32.0,32.0,100,30.06,10.0,NW,9.2,-,N/A,,Overcast,320,2012-12-08 12:35:00
5:55 AM,33.8,24.8,70,30.06,10.0,NW,13.8,19.6,N/A,,Overcast,320,2012-12-08 12:55:00
6:15 AM,33.8,21.2,60,30.06,10.0,NW,12.7,-,N/A,,Overcast,310,2012-12-08 13:15:00
6:35 AM,33.8,21.2,60,30.07,10.0,NW,12.7,23.0,N/A,,Overcast,320,2012-12-08 13:35:00
6:55 AM,33.8,21.2,60,30.08,10.0,NNW,9.2,18.4,N/A,,Overcast,330,2012-12-08 13:55:00
7:15 AM,32.0,23.0,69,30.09,10.0,NW,8.1,-,N/A,,Overcast,320,2012-12-08 14:15:00
7:35 AM,32.0,23.0,69,30.09,10.0,NNW,8.1,-,N/A,,Overcast,330,2012-12-08 14:35:00
7:55 AM,32.0,21.2,64,30.10,10.0,NW,8.1,-,N/A,,Overcast,320,2012-12-08 14:55:00
8:15 AM,32.0,21.2,64,30.10,10.0,NW,8.1,-,N/A,,Scattered Clouds,320,2012-12-08 15:15:00
8:35 AM,32.0,23.0,69,30.11,10.0,NNW,6.9,-,N/A,,Clear,340,2012-12-08 15:35:00
8:55 AM,32.0,21.2,64,30.12,10.0,North,5.8,-,N/A,,Clear,350,2012-12-08 15:55:00
9:15 AM,32.0,21.2,64,30.13,10.0,NNW,5.8,-,N/A,,Clear,340,2012-12-08 16:15:00
9:35 AM,32.0,23.0,69,30.13,10.0,NNW,4.6,-,N/A,,Clear,330,2012-12-08 16:35:00
9:55 AM,32.0,23.0,69,30.13,10.0,NW,5.8,-,N/A,,Clear,320,2012-12-08 16:55:00
10:15 AM,32.0,23.0,69,30.14,10.0,NW,8.1,-,N/A,,Clear,310,2012-12-08 17:15:00
10:35 AM,32.0,24.8,75,30.15,10.0,NNW,5.8,-,N/A,,Clear,340,2012-12-08 17:35:00
10:55 AM,32.0,24.8,75,30.16,10.0,NW,5.8,-,N/A,,Clear,310,2012-12-08 17:55:00
11:15 AM,33.8,24.8,70,30.15,10.0,NW,6.9,-,N/A,,Partly Cloudy,310,2012-12-08 18:15:00
11:35 AM,33.8,24.8,70,30.15,10.0,NW,5.8,-,N/A,,Clear,310,2012-12-08 18:35:00
11:55 AM,33.8,23.0,65,30.15,10.0,NW,6.9,-,N/A,,Clear,320,2012-12-08 18:55:00
12:15 PM,33.8,24.8,70,30.14,10.0,NW,5.8,-,N/A,,Clear,320,2012-12-08 19:15:00
12:35 PM,33.8,24.8,70,30.14,10.0,NW,4.6,-,N/A,,Clear,310,2012-12-08 19:35:00
12:55 PM,35.6,23.0,60,30.14,10.0,NW,4.6,-,N/A,,Clear,310,2012-12-08 19:55:00
1:15 PM,35.6,24.8,65,30.13,10.0,NW,4.6,-,N/A,,Clear,320,2012-12-08 20:15:00
1:35 PM,35.6,24.8,65,30.13,10.0,NW,4.6,-,N/A,,Clear,320,2012-12-08 20:35:00
1:55 PM,35.6,24.8,65,30.13,10.0,NNW,3.5,-,N/A,,Clear,330,2012-12-08 20:55:00
2:15 PM,35.6,24.8,65,30.12,10.0,North,4.6,-,N/A,,Clear,350,2012-12-08 21:15:00
2:35 PM,35.6,24.8,65,30.12,10.0,NNW,4.6,-,N/A,,Clear,330,2012-12-08 21:35:00
2:55 PM,37.4,24.8,60,30.12,10.0,NNW,6.9,-,N/A,,Clear,340,2012-12-08 21:55:00
3:15 PM,37.4,24.8,60,30.12,10.0,NNW,4.6,-,N/A,,Scattered Clouds,340,2012-12-08 22:15:00
3:35 PM,37.4,23.0,56,30.13,10.0,NNW,5.8,-,N/A,,Overcast,330,2012-12-08 22:35:00
3:55 PM,37.4,24.8,60,30.13,10.0,NNW,3.5,-,N/A,,Overcast,340,2012-12-08 22:55:00
4:15 PM,37.4,24.8,60,30.13,10.0,NNW,3.5,-,N/A,,Overcast,340,2012-12-08 23:15:00
4:55 PM,35.6,26.6,70,30.15,10.0,NNE,11.5,16.1,N/A,,Overcast,20,2012-12-08 23:55:00
5:15 PM,33.8,28.4,81,30.15,9.0,North,6.9,-,N/A,,Mostly Cloudy,10,2012-12-09 00:15:00
5:35 PM,33.8,28.4,81,30.15,10.0,NNE,6.9,-,N/A,,Overcast,30,2012-12-09 00:35:00
5:55 PM,33.8,28.4,81,30.16,10.0,North,6.9,-,N/A,,Overcast,360,2012-12-09 00:55:00
6:15 PM,33.8,28.4,81,30.16,10.0,NE,3.5,-,N/A,,Mostly Cloudy,40,2012-12-09 01:15:00
6:35 PM,33.8,28.4,81,30.16,10.0,Calm,Calm,-,N/A,,Overcast,0,2012-12-09 01:35:00
6:55 PM,33.8,28.4,81,30.17,10.0,Calm,Calm,-,N/A,,Overcast,0,2012-12-09 01:55:00
7:15 PM,32.0,28.4,87,30.16,10.0,East,4.6,-,N/A,,Overcast,100,2012-12-09 02:15:00
7:35 PM,33.8,28.4,81,30.17,10.0,Calm,Calm,-,N/A,,Overcast,0,2012-12-09 02:35:00
8:15 PM,32.0,28.4,87,30.18,10.0,Calm,Calm,-,N/A,,Overcast,0,2012-12-09 03:15:00
8:55 PM,32.0,30.2,93,30.19,10.0,Calm,Calm,-,N/A,,Overcast,0,2012-12-09 03:55:00
9:15 PM,32.0,32.0,100,30.19,7.0,ENE,3.5,-,N/A,,Overcast,70,2012-12-09 04:15:00
9:35 PM,32.0,32.0,100,30.19,5.0,ESE,3.5,-,N/A,,Overcast,110,2012-12-09 04:35:00
10:15 PM,32.0,32.0,100,30.21,10.0,ENE,4.6,-,N/A,,Overcast,70,2012-12-09 05:15:00
10:35 PM,32.0,32.0,100,30.20,10.0,Calm,Calm,-,N/A,,Overcast,0,2012-12-09 05:35:00
10:55 PM,32.0,32.0,100,30.21,8.0,East,3.5,-,N/A,,Overcast,100,2012-12-09 05:55:00
11:15 PM,32.0,32.0,100,30.21,10.0,Calm,Calm,-,N/A,,Overcast,0,2012-12-09 06:15:00
11:35 PM,32.0,32.0,100,30.22,4.0,Calm,Calm,-,N/A,,Overcast,0,2012-12-09 06:35:00
11:55 PM,32.0,32.0,100,30.23,1.8,Calm,Calm,-,N/A,,Overcast,0,2012-12-09 06:55:00